GW2838 Weather Reports


time (UTC)temp
F
wind
direction
speed
knots
gust
knots
rain 1hr
in
rain 24hr
in
rain mn
in
humidity
%
barometer
mb
20260504081016 48 0.0 0.0 0.00 0.00 0.00 73 1038.1
20260504050019 46 0.0 0.0 0.00 0.00 0.00 69 1038.3
20260504045035 46 0.0 0.0 0.00 0.00 0.00 68 1038.4
20260504044032 46 0.0 0.0 0.00 0.00 0.00 67 1038.3
20260504043026 46 0.0 0.0 0.00 0.00 0.00 67 1038.4
20260504042022 46 0.0 0.0 0.00 0.00 0.00 67 1038.3
20260504041018 46 0.0 0.0 0.00 0.00 0.00 67 1038.3
20260504040034 46 0.0 0.0 0.00 0.00 0.00 65 1038.4
20260504035030 47 0.0 0.0 0.00 0.00 0.00 64 1038.3
20260504034027 47 281 0.0 0.9 0.00 0.00 0.00 63 1038.2
20260504033022 47 0.0 0.0 0.00 0.00 0.00 63 1038.2
20260504032016 48 0.0 0.0 0.00 0.00 0.00 61 1038.0
20260504031031 48 0.0 0.0 0.00 0.00 0.00 59 1037.9
20260504030046 48 0.0 0.0 0.00 0.00 0.00 58 1037.9
20260504025022 49 0.0 0.0 0.00 0.00 0.00 56 1037.8
20260504024017 49 0.0 0.0 0.00 0.00 0.00 55 1037.7
20260504023054 49 0.0 0.0 0.00 0.00 0.00 54 1037.8
20260504022051 50 0.0 0.0 0.00 0.00 0.00 54 1037.6
20260504021026 51 302 0.0 0.9 0.00 0.00 0.00 52 1037.7
20260504020021 51 290 0.9 1.7 0.00 0.00 0.00 51 1037.6
20260504015018 51 0.0 0.0 0.00 0.00 0.00 49 1037.5
20260504014033 52 0.0 0.0 0.00 0.00 0.00 49 1037.5
20260504013029 53 0.0 0.0 0.00 0.00 0.00 46 1037.4
20260504012045 53 0.0 0.0 0.00 0.00 0.00 46 1037.4
20260504011021 54 0.0 0.0 0.00 0.00 0.00 45 1037.3
20260504010017 54 0.0 0.0 0.00 0.00 0.00 44 1037.2
20260504005034 55 0.0 0.0 0.00 0.00 0.00 42 1037.3
20260504004030 55 0.0 0.0 0.00 0.00 0.00 40 1037.1
20260504003025 56 0.0 0.0 0.00 0.00 0.00 39 1037.0
20260504002022 57 234 0.0 0.9 0.00 0.00 0.00 37 1036.8
20260504001037 58 261 0.0 1.7 0.00 0.00 0.00 35 1036.8
20260504000034 59 270 0.0 0.9 0.00 0.00 0.00 34 1036.7
20260503235031 60 232 0.9 1.7 0.00 0.00 0.00 34 1036.6
20260503234026 60 261 2.6 6.1 0.00 0.00 0.00 33 1036.6
20260503233022 60 246 1.7 6.1 0.00 0.00 0.00 33 1036.5
20260503232019 61 277 2.6 6.1 0.00 0.00 0.00 32 1036.5
20260503231035 61 277 0.9 3.5 0.00 0.00 0.00 32 1036.4
20260503230031 61 303 2.6 7.0 0.00 0.00 0.00 31 1036.5
20260503225027 62 255 3.5 9.6 0.00 0.00 0.00 31 1036.5
20260503224023 62 273 4.3 7.0 0.00 0.00 0.00 31 1036.5
20260503223019 62 279 4.3 9.6 0.00 0.00 0.00 31 1036.6
20260503222035 62 255 3.5 9.6 0.00 0.00 0.00 31 1036.6
20260503221031 62 280 4.3 7.8 0.00 0.00 0.00 31 1036.6
20260503220027 62 266 3.5 9.6 0.00 0.00 0.00 31 1036.7
20260503215024 62 292 4.3 12.2 0.00 0.00 0.00 31 1036.7
20260503214041 62 259 4.3 13.9 0.00 0.00 0.00 31 1036.7
20260503213016 62 305 7.0 12.2 0.00 0.00 0.00 31 1036.8
20260503212052 62 265 4.3 12.2 0.00 0.00 0.00 31 1036.6
20260503211028 62 312 3.5 11.3 0.00 0.00 0.00 31 1036.8
20260503210024 61 289 4.3 9.6 0.00 0.00 0.00 32 1036.8
20260503205021 62 277 6.1 13.9 0.00 0.00 0.00 31 1036.7
20260503204017 62 276 4.3 11.3 0.00 0.00 0.00 31 1036.7
20260503201529 61 293 2.6 7.8 0.00 0.00 0.00 33 1037.2
20260503201032 62 287 7.8 13.9 0.00 0.00 0.00 33 1037.1